STARLINK-36975, 67993

Orbit data source: Space-Track

STARLINK-36975, 67993 is a payload satellite owned by SpaceX/Seattle (US) in LEO that was launched on Fri, 27 Feb 2026 UTC via an FALCON 9 launch vehicle from the Air Force Eastern Test Range (AFETR). Payload-class satellites include a variety of spacecraft equipped with specific instruments for various scientific and technological missions. These include communications satellites like Starlink; space stations such as the ISS; scientific satellites like the Hubble; Earth observation satellites from companies like Planet Labs, Umbra, and HawkEye 360; GPS; miniature CubeSats for education and research; and military/defense satellites.

Loading next visibility...
Identifier
67993, 2026-039H
Orbit
LEO
Country
Flag of USUS
Related business
Manufacturer
SpaceX/Seattle
Mission
Operational Commercial Communications
Bus & Motor
STARLINK V2MO, Unknown motor
Mass
575 kg wet, ~530 kg dry
Launch date (UTC)
2026-02-27 (2 months ago)
Launch vehicle
FALCON 9
Launch site
Air Force Eastern Test Range (AFETR)
Object type
Payload
Rocket body
Debris
Shape & HBR
Box + 2 Pan, 17.7 m
Radar Cross Section
36.964 m²

Expand to show TLE details & history
Last TLE update: 7 hours ago

TLE from 7 hours ago
0 STARLINK-36975
1 67993U 26039H   26119.30363959  .00013296  00000-0  49174-3 0  9990
2 67993  43.0029 123.1423 0001039 273.4379  86.6353 15.27584430  9445
Epoch: 2026-04-29T07:17Z
TLE epoch observation values (Epoch: 2026-04-29T07:17:14.460Z)
Latitude
-0.00008°
Longitude
156.56544°
Altitude
482.77 km
Speed
7.626 km/s
True Right ascension
08h 12m 34s
True Declination
0° 00' 00"
Sunlit
Object was in daylight at epoch
Visualization orbit readout
Latitude
Unknown
Longitude
Unknown
Altitude
Unknown
Speed
Unknown
Apparent Right ascension
Unknown
Apparent Declination
Unknown
Sunlit
N/A
Visualization observer readout
Local Sidereal Time
21:51:01
Azimuth
Unknown
Elevation
Unknown
Doppler factor
Unknown
Orbital elements
Apogee altitude
485.694 km
Perigee altitude
484.267 km
Semi-major axis
6,863.118 km
Eccentricity
0.0001
Inclination
43.0029°
RAAN
123.1423°
Arg. of periapsis
273.4379°
True anomaly
86.64719°
Mean anomaly
86.6353°
Eccentric anomaly
86.64124°
Mean motion
3.81734 °/min
Orbital period
94.31 mins
BSTAR
0.00049174
Loading maneuver chart data...
Computing Atmospheric mass density...
Loading historical data...
Loading historical data...
Loading historical data...
Loading historical data...
Loading historical data...
Loading historical data...
Loading historical data...

Documentation

Showing up to 5 results
|